Location: Cella
(44.7333°N, 10.5667°E)
Time: 23:57:54
(UTC+00:00)

FALCON 9 DEB - Pass Details

Date: 03 March 2021
Orbit: 424 x 435 km, 53.0° (Epoch: 18 April)

Event Time Altitude Azimuth Distance (km) Brightness Sun altitude
Rises 18:14:57 0° 304° (NW) 2,407 8.0 -12.6°
Reaches altitude 10° 18:17:08 10° 311° (NW) 1,535 6.7 -13.0°
Maximum altitude 18:20:28 47° 26° (NNE) 575 3.5 -13.6°
Enters shadow 18:21:59 27° 87° (E) 860 4.0 -13.9°
